Home   Weather   Plettenberg   Past weeks

Flag for Germany Past Weather in Plettenberg, North Rhine-Westphalia, Germany — Yesterday and Last 2 Weeks

Now
28 °F

Clear.


Feels Like: 20 °F
Forecast: 18 / 35 °F
Wind: 8 mph from South

Location: Dortmund / Wickede

Current Time: Dec 5, 2016 at 9:46:24 pm

Latest Report: Dec 5, 2016 at 8:50 pm


Visibility: 10 mi

Pressure: 30.30 "Hg

Humidity: 80%

Dew Point: 23 °F

Location of PlettenbergLocation

Past Weather in Plettenberg — Graph

°F

Plettenberg Temperature Yesterday

Maximum temperature yesterday: 36 °F (at 12:50 pm)
Minimum temperature yesterday: 21 °F (at 7:50 am)
Average temperature yesterday: 29 °F

High & Low Weather Summary for the Past Weeks

 TemperatureHumidityPressure
High57 °F (Nov 21, 2:50 pm)93% (Nov 24, 5:20 am)30.57 "Hg (Nov 24, 5:20 am)
Low21 °F (Nov 29, 6:50 am)41% (Nov 30, 12:20 pm)29.50 "Hg (Nov 21, 3:50 pm)
Average38 °F76%30.17 "Hg
* Reported Nov 20 8:20 pm — Dec 5 8:20 pm, Plettenberg, Weather by CustomWeather, © 2016

Note: Actual official high and low records may vary slightly from our data, if they occured in-between our weather recording intervals... More about our weather records

Advertising

Plettenberg Weather History for the Previous 24 Hours

Scroll right to see more
 ConditionsComfort  
Time TempWeatherWind HumidityBarometerVisibility
8:20 pm
Mon, Dec 5
28 °FClear.7 mph80%30.30 "Hg10 mi
7:50 pm28 °FClear.7 mph74%30.30 "Hg10 mi
7:20 pm30 °FClear.6 mph75%30.30 "Hg10 mi
6:50 pm32 °FClear.5 mph69%30.30 "Hg10 mi
6:20 pm32 °FClear.5 mph69%30.30 "Hg10 mi
5:50 pm34 °FClear.2 mph65%30.30 "Hg10 mi
5:20 pm34 °FClear.3 mph60%30.30 "Hg10 mi
4:50 pm36 °FClear.2 mph56%30.30 "Hg10 mi
4:20 pm37 °FSunny.2 mph52%30.27 "Hg10 mi
3:50 pm39 °FSunny.2 mph52%30.27 "Hg10 mi
3:20 pm41 °FSunny.2 mph53%30.27 "Hg10 mi
2:50 pm41 °FSunny.3 mph53%30.27 "Hg10 mi
2:20 pm43 °FSunny.2 mph49%30.27 "Hg10 mi
1:50 pm41 °FSunny.2 mph53%30.27 "Hg10 mi
1:20 pm43 °FSunny.3 mph53%30.27 "Hg10 mi
12:50 pm41 °FSunny.2 mph61%30.27 "Hg10 mi
12:20 pm37 °FSunny.1 mph65%30.30 "Hg10 mi
11:50 am39 °FSunny.2 mph56%30.30 "Hg10 mi
11:20 am37 °FSunny.3 mph56%30.30 "Hg10 mi
10:50 am36 °FSunny.3 mph56%30.30 "Hg10 mi
10:20 am34 °FSunny.5 mph60%30.30 "Hg10 mi
9:50 am30 °FSunny.7 mph64%30.30 "Hg10 mi
9:20 am27 °FSunny.6 mph69%30.30 "Hg10 mi
8:50 am27 °FSunny.2 mph69%30.30 "Hg10 mi
8:20 am27 °FSunny.2 mph69%30.30 "Hg10 mi
7:50 am25 °FClear.No wind69%30.27 "Hg10 mi
7:20 am25 °FClear.5 mph63%30.27 "Hg10 mi
6:50 am27 °FClear.2 mph64%30.27 "Hg10 mi
6:20 am28 °FClear.2 mph64%30.27 "Hg10 mi
5:50 am27 °FClear.2 mph64%30.27 "Hg10 mi
5:20 am30 °FClear.5 mph64%30.27 "Hg10 mi
9:50 pm
Sun, Dec 4
27 °FClear.2 mph74%30.33 "Hg10 mi
9:20 pm28 °FClear.1 mph64%30.33 "Hg10 mi
Weather by CustomWeather, © 2016

See weather overviewHow to use our weather pages